{"data":{"norad_id":56726,"intl_designator":"2023-068S","name":"IRIDIUM 181","alt_names":[],"object_type":"PAYLOAD","status":"ACTIVE","operator":null,"country":"US","launch_date":"2023-05-20","launch_site_code":"AFWTR","launch_vehicle":null,"mission":null,"orbit_class":"UNKNOWN","rcs_meters":null,"size_class":null,"mass_kg":null,"dimensions":null,"purposes":["comms"],"wikipedia_slug":null,"has_3d_model":false,"image_url":null,"decayed_at":null,"tle_current":{"epoch":"2026-05-25T00:28:28.059744Z","epoch_age_seconds":73109,"freshness":"FRESH","line1":"1 56726U 23068S   26145.01976921  .00000274  00000+0  75495-4 0  9994","line2":"2 56726  86.4506  66.4728 0002146  89.9808 270.1639 14.43310685159092","mean_motion":14.43310685,"eccentricity":0.0002146,"inclination_deg":86.4506,"raan_deg":66.4728,"arg_perigee_deg":89.9808,"mean_anomaly_deg":270.1639,"bstar":7.5495e-5,"rev_number":15909,"period_min":99.770618686995,"perigee_km":746.05169475721,"apogee_km":749.11005286865,"semimajor_km":7125.7178738129,"source":"CELESTRAK","updated_at":"2026-05-25T13:38:14.816355Z"}}}